{"data":{"norad_id":53660,"intl_designator":"2022-105N","name":"STARLINK-4473","alt_names":[],"object_type":"PAYLOAD","status":"ACTIVE","operator":null,"country":"US","launch_date":"2022-08-31","launch_site_code":"AFWTR","launch_vehicle":null,"mission":null,"orbit_class":"UNKNOWN","rcs_meters":null,"size_class":null,"mass_kg":null,"dimensions":null,"purposes":["comms"],"wikipedia_slug":null,"has_3d_model":false,"image_url":null,"decayed_at":null,"tle_current":{"epoch":"2026-09-20T21:40:49.822752Z","epoch_age_seconds":46676,"freshness":"FRESH","line1":"1 53660U 22105N   26263.90335443 -.00000076  00000+0 -13948-5 0  9994","line2":"2 53660  97.2831 137.6977 0002124  76.5892 283.5572 15.05652820222606","mean_motion":15.0565282,"eccentricity":0.0002124,"inclination_deg":97.2831,"raan_deg":137.6977,"arg_perigee_deg":76.5892,"mean_anomaly_deg":283.5572,"bstar":-1.3948e-6,"rev_number":22260,"period_min":95.639577787926,"perigee_km":548.03107335155,"apogee_km":550.97393461284,"semimajor_km":6927.6395039822,"source":"CELESTRAK","updated_at":"2026-09-21T09:00:32.951528Z"}}}